Weather Roundup
Issued by NWS Chicago, IL

Home | Current Version | Previous Version | Text Only | Print | Product List | Glossary Off
Versions: 1 2 3 4 5 6 7 8 9 10 11 12 13 14 15 16 17 18 19 20 21 22 23 24 25 26 27 28 29 30 31 32 33 34 35 36 37 38 39 40 41 42 43 44 45 46 47 48 49 50

000
NZUS59 KLOT 131510
HRRLOT

CHICAGO AREA WEATHER ROUNDUP
NATIONAL WEATHER SERVICE CHICAGO/ROMEOVILLE IL
1000 AM CDT SUN JUL 13 2014

NOTE: "FAIR" INDICATES FEW OR NO CLOUDS BELOW 12,000 FEET WITH NO
SIGNIFICANT WEATHER AND/OR OBSTRUCTIONS TO VISIBILITY.

* THESE STATIONS ARE NOT UNDER NWS QUALITY CONTROL. THEY ALSO MAY NOT
  REPORT WEATHER SUCH AS PRECIPITATION OR FOG.

ILZ005-006-012>014-019>023-131600-
NORTHEAST ILLINOIS

CITY           SKY/WX    TMP DP  RH WIND       PRES   REMARKS
OHARE          PTSUNNY   72  63  73 SW8       29.94F
MIDWAY         CLOUDY    72  66  81 W6        29.94F
AURORA         PTSUNNY   72  65  78 W8        29.97S
LANSING*       PTSUNNY   73  65  77 W3        29.96S
JOLIET*        CLOUDY    71  64  80 SW6       29.97S
WAUKEGAN       MOSUNNY   73  64  73 VRB7      29.92S
DUPAGE AIRPORT PTSUNNY   73  66  78 SW8       29.95F
WHEELING       MOSUNNY   75  65  70 SW6       29.94F
KANKAKEE*      CLOUDY    73  67  83 W8        29.97S
MORRIS*        CLOUDY    72  67  86 W6        29.96F
LEWIS AIRPORT* CLOUDY    71  66  85 W3        29.96F
NORTHERLY IS     N/A     71  64  78 SW8         N/A
$$

WIZ051-052-058>065-066-070>072-131600-
SOUTHEAST WISCONSIN

CITY           SKY/WX    TMP DP  RH WIND       PRES   REMARKS
MILWAUKEE      MOSUNNY   73  62  68 W13       29.91S
KENOSHA*       MOSUNNY   73  66  78 W13G18    29.93S
RACINE*        MOSUNNY   73  65  75 W8        29.93S
BURLINGTON     MOSUNNY   70  64  82 W8        29.93F
WAUKESHA       SUNNY     70  63  78 W12       29.93S
WEST BEND      SUNNY     72  61  68 W10       29.91S
$$

INZ001>003-010>013-019-020-131600-
NORTHWEST INDIANA

CITY           SKY/WX    TMP DP  RH WIND       PRES   REMARKS
GARY*          PTSUNNY   75  68  78 W12       29.95S
MICHIGAN CITY* NOT AVBL
RENSSELAER*    NOT AVBL
VALPARAISO     PTSUNNY   74  66  76 NW6       29.96R
$$

LMZ740>746-131600-
SOUTHERN LAKE MICHIGAN

STATION/POSITION TIME  SKY/WX   TEMP WIND        PRES    VSBY
                                AIR  DIR/SP/G
                 (UTC)          (F)  (DEG/KT/KT) (MB)    (MI)
HARRISON CRIB    1500            69  250/  8/ 10   N/A
BURNHAM HARBOR   1500            72  220/  3/ 10   N/A
CALUMET HARBOR   1500            72  280/  6/ 10 1014.9F
BURNS HARBOR     NOT AVBL
MICHIGAN CITY    1500            71  260/  8/  9   N/A
$$

ABBREVIATIONS USED IN REMARKS
   TC - TEMPERATURE IN CELSIUS
  WCI - WIND CHILL INDEX
   HX - HEAT INDEX
  VSB - VISIBILITY
$$


USA.gov is the U.S. government's official web portal to all federal, state and local government web resources and services.